| time (UTC) | temp F | wind direction | speed MPH | gust MPH | rain 1hr in | rain 24hr in | rain mn in | humidity % | barometer mb |
| 20260901234205 | 81 | 22 | 2.0 | 9.0 | 0.03 | 0.04 | 0.04 | 98 | 1013.4 |
| 20260901233204 | 82 | 333 | 2.0 | 3.0 | 0.00 | 0.01 | 0.01 | 94 | 1013.5 |
| 20260901232704 | 83 | 300 | 0.0 | 0.0 | 0.00 | 0.01 | 0.01 | 92 | 1013.4 |
| 20260901232205 | 83 | 300 | 0.0 | 0.0 | 0.00 | 0.01 | 0.01 | 92 | 1013.5 |
| 20260901231706 | 83 | 299 | 0.0 | 0.0 | 0.00 | 0.01 | 0.01 | 91 | 1013.5 |
| 20260901230705 | 83 | 300 | 0.0 | 0.0 | 0.00 | 0.01 | 0.01 | 90 | 1014.1 |
| 20260901230204 | 84 | 300 | 0.0 | 0.0 | 0.00 | 0.01 | 0.01 | 90 | 1013.9 |
| 20260901225704 | 84 | 300 | 0.0 | 0.0 | 0.00 | 0.01 | 0.01 | 90 | 1013.7 |
| 20260901224706 | 85 | 299 | 0.0 | 0.0 | 0.00 | 0.01 | 0.01 | 88 | 1013.7 |
| 20260901223704 | 86 | 299 | 0.0 | 0.0 | 0.00 | 0.01 | 0.01 | 85 | 1013.5 |
| 20260901223204 | 86 | 299 | 0.0 | 0.0 | 0.00 | 0.01 | 0.01 | 85 | 1014.0 |
| 20260901222704 | 87 | 299 | 0.0 | 0.0 | 0.00 | 0.01 | 0.01 | 85 | 1014.2 |
| 20260901222206 | 87 | 300 | 0.0 | 0.0 | 0.00 | 0.01 | 0.01 | 84 | 1014.1 |
| 20260901221704 | 87 | 300 | 0.0 | 0.0 | 0.00 | 0.01 | 0.01 | 83 | 1014.0 |
| 20260901221204 | 87 | 300 | 0.0 | 0.0 | 0.00 | 0.01 | 0.01 | 83 | 1013.7 |
| 20260901220704 | 87 | 300 | 0.0 | 0.0 | 0.00 | 0.01 | 0.01 | 84 | 1014.1 |
| 20260901214704 | 87 | 300 | 0.0 | 1.0 | 0.00 | 0.01 | 0.01 | 85 | 1013.8 |
| 20260901213704 | 88 | 292 | 0.0 | 1.0 | 0.00 | 0.01 | 0.01 | 82 | 1014.1 |
| 20260901213205 | 88 | 292 | 0.0 | 1.0 | 0.00 | 0.01 | 0.01 | 80 | 1014.0 |
| 20260901212704 | 88 | 293 | 1.0 | 1.0 | 0.00 | 0.01 | 0.01 | 82 | 1014.2 |
| 20260901212204 | 88 | 292 | 0.0 | 1.0 | 0.00 | 0.01 | 0.01 | 81 | 1014.1 |
| 20260901211704 | 88 | 292 | 0.0 | 1.0 | 0.00 | 0.01 | 0.01 | 80 | 1013.9 |
| 20260901210704 | 88 | 304 | 0.0 | 1.0 | 0.00 | 0.01 | 0.01 | 82 | 1013.9 |
| 20260901210204 | 88 | 298 | 0.0 | 1.0 | 0.00 | 0.01 | 0.01 | 81 | 1014.1 |
| 20260901205704 | 88 | 288 | 1.0 | 1.0 | 0.00 | 0.01 | 0.01 | 81 | 1013.9 |
| 20260901204706 | 87 | 296 | 0.0 | 3.0 | 0.00 | 0.01 | 0.01 | 80 | 1014.0 |
| 20260901203704 | 87 | 286 | 1.0 | 3.0 | 0.00 | 0.01 | 0.01 | 80 | 1014.3 |
| 20260901203205 | 87 | 285 | 1.0 | 5.0 | 0.00 | 0.01 | 0.01 | 80 | 1014.0 |
| 20260901202204 | 88 | 271 | 1.0 | 7.0 | 0.00 | 0.01 | 0.01 | 80 | 1014.2 |
| 20260901201704 | 88 | 263 | 2.0 | 7.0 | 0.00 | 0.01 | 0.01 | 79 | 1014.3 |
| 20260901201204 | 88 | 283 | 1.0 | 5.0 | 0.00 | 0.01 | 0.01 | 81 | 1014.2 |
| 20260901200705 | 88 | 269 | 1.0 | 3.0 | 0.00 | 0.01 | 0.01 | 80 | 1014.5 |
| 20260901195705 | 87 | 304 | 1.0 | 3.0 | 0.00 | 0.01 | 0.01 | 79 | 1014.6 |
| 20260901195204 | 88 | 285 | 0.0 | 3.0 | 0.00 | 0.01 | 0.01 | 80 | 1014.7 |
| 20260901194704 | 87 | 297 | 0.0 | 3.0 | 0.00 | 0.01 | 0.01 | 81 | 1014.6 |
| 20260901194204 | 87 | 292 | 1.0 | 3.0 | 0.00 | 0.01 | 0.01 | 81 | 1014.7 |
| 20260901192704 | 87 | 286 | 0.0 | 5.0 | 0.00 | 0.01 | 0.01 | 81 | 1014.9 |
| 20260901192204 | 86 | 265 | 2.0 | 5.0 | 0.00 | 0.01 | 0.01 | 80 | 1014.8 |
| 20260901191704 | 87 | 284 | 1.0 | 1.0 | 0.00 | 0.01 | 0.01 | 82 | 1014.9 |
| 20260901191204 | 88 | 285 | 0.0 | 5.0 | 0.00 | 0.01 | 0.01 | 79 | 1014.8 |
| 20260901190704 | 87 | 309 | 1.0 | 5.0 | 0.00 | 0.01 | 0.01 | 78 | 1015.1 |
| 20260901190204 | 87 | 276 | 1.0 | 5.0 | 0.00 | 0.01 | 0.01 | 79 | 1014.9 |
| 20260901185706 | 87 | 268 | 2.0 | 8.0 | 0.00 | 0.01 | 0.01 | 77 | 1014.8 |
| 20260901185205 | 88 | 279 | 2.0 | 7.0 | 0.00 | 0.01 | 0.01 | 77 | 1014.9 |
| 20260901184704 | 88 | 263 | 1.0 | 5.0 | 0.00 | 0.01 | 0.01 | 80 | 1015.1 |
| 20260901183704 | 86 | 285 | 1.0 | 5.0 | 0.00 | 0.01 | 0.01 | 82 | 1015.2 |
| 20260901183204 | 86 | 274 | 1.0 | 7.0 | 0.00 | 0.01 | 0.01 | 83 | 1015.2 |
| 20260901182704 | 86 | 279 | 0.0 | 5.0 | 0.00 | 0.01 | 0.01 | 81 | 1015.2 |
| 20260901182204 | 87 | 277 | 1.0 | 5.0 | 0.00 | 0.01 | 0.01 | 81 | 1015.3 |
| 20260901181703 | 87 | 274 | 3.0 | 8.0 | 0.00 | 0.01 | 0.01 | 80 | 1015.3 |
| 20260901180704 | 87 | 280 | 1.0 | 5.0 | 0.00 | 0.01 | 0.01 | 79 | 1015.1 |
| 20260901180204 | 88 | 285 | 1.0 | 3.0 | 0.00 | 0.01 | 0.01 | 78 | 1015.1 |
| 20260901175705 | 88 | 270 | 2.0 | 3.0 | 0.00 | 0.01 | 0.01 | 78 | 1015.1 |
| 20260901175204 | 88 | 265 | 2.0 | 8.0 | 0.00 | 0.01 | 0.01 | 77 | 1015.4 |
| 20260901174704 | 90 | 282 | 1.0 | 3.0 | 0.00 | 0.01 | 0.01 | 76 | 1015.1 |
| 20260901174204 | 90 | 300 | 1.0 | 3.0 | 0.00 | 0.01 | 0.01 | 78 | 1015.0 |
| 20260901173204 | 89 | 221 | 2.0 | 5.0 | 0.00 | 0.01 | 0.01 | 76 | 1015.0 |
| 20260901172704 | 89 | 277 | 2.0 | 3.0 | 0.00 | 0.01 | 0.01 | 78 | 1015.1 |
| 20260901172205 | 88 | 269 | 2.0 | 3.0 | 0.00 | 0.01 | 0.01 | 79 | 1015.3 |
| 20260901171704 | 87 | 284 | 1.0 | 3.0 | 0.00 | 0.01 | 0.01 | 79 | 1015.3 |
| 20260901171204 | 87 | 274 | 1.0 | 3.0 | 0.00 | 0.01 | 0.01 | 82 | 1015.4 |
| 20260901170705 | 87 | 282 | 1.0 | 1.0 | 0.00 | 0.01 | 0.01 | 80 | 1015.5 |
| 20260901170205 | 87 | 280 | 1.0 | 1.0 | 0.00 | 0.01 | 0.01 | 82 | 1015.7 |
| 20260901165204 | 85 | 274 | 1.0 | 1.0 | 0.00 | 0.01 | 0.01 | 83 | 1015.9 |
| 20260901164705 | 85 | 255 | 1.0 | 1.0 | 0.00 | 0.01 | 0.01 | 85 | 1015.8 |
| 20260901164205 | 84 | 280 | 1.0 | 1.0 | 0.00 | 0.01 | 0.01 | 87 | 1015.8 |
| 20260901163704 | 82 | 282 | 0.0 | 1.0 | 0.00 | 0.01 | 0.01 | 89 | 1015.8 |
| 20260901163205 | 82 | 280 | 0.0 | 1.0 | 0.00 | 0.01 | 0.01 | 90 | 1015.9 |
| 20260901162705 | 81 | 282 | 0.0 | 3.0 | 0.00 | 0.01 | 0.01 | 91 | 1016.1 |
| 20260901162204 | 81 | 293 | 1.0 | 5.0 | 0.00 | 0.01 | 0.01 | 91 | 1016.3 |
| 20260901161705 | 81 | 282 | 1.0 | 1.0 | 0.00 | 0.01 | 0.01 | 90 | 1016.1 |
| 20260901161205 | 81 | 296 | 1.0 | 3.0 | 0.00 | 0.01 | 0.01 | 91 | 1016.3 |
| 20260901160706 | 81 | 293 | 0.0 | 1.0 | 0.00 | 0.01 | 0.01 | 91 | 1016.5 |
| 20260901160204 | 80 | 296 | 0.0 | 0.0 | 0.00 | 0.01 | 0.01 | 92 | 1016.2 |
| 20260901155704 | 80 | 296 | 0.0 | 0.0 | 0.00 | 0.01 | 0.01 | 94 | 1016.3 |
| 20260901155204 | 80 | 296 | 0.0 | 0.0 | 0.00 | 0.01 | 0.01 | 93 | 1016.4 |
| 20260901154705 | 80 | 296 | 0.0 | 0.0 | 0.00 | 0.01 | 0.01 | 94 | 1016.3 |
| 20260901154205 | 80 | 296 | 0.0 | 0.0 | 0.00 | 0.01 | 0.01 | 94 | 1016.4 |
| 20260901153704 | 80 | 296 | 0.0 | 1.0 | 0.00 | 0.01 | 0.01 | 93 | 1016.5 |
| 20260901152704 | 81 | 293 | 0.0 | 0.0 | 0.00 | 0.01 | 0.01 | 92 | 1016.2 |
| 20260901152206 | 81 | 289 | 0.0 | 1.0 | 0.00 | 0.01 | 0.01 | 91 | 1016.5 |
| 20260901151704 | 81 | 285 | 0.0 | 1.0 | 0.00 | 0.01 | 0.01 | 90 | 1016.3 |
| 20260901151205 | 81 | 296 | 0.0 | 0.0 | 0.00 | 0.01 | 0.01 | 91 | 1016.5 |
| 20260901150205 | 81 | 296 | 0.0 | 1.0 | 0.00 | 0.01 | 0.01 | 90 | 1016.4 |
| 20260901145704 | 81 | 299 | 0.0 | 1.0 | 0.00 | 0.01 | 0.01 | 89 | 1016.2 |
| 20260901144704 | 82 | 300 | 0.0 | 1.0 | 0.00 | 0.01 | 0.01 | 89 | 1016.3 |
| 20260901144204 | 81 | 302 | 0.0 | 3.0 | 0.00 | 0.01 | 0.01 | 89 | 1016.2 |
| 20260901143204 | 84 | 279 | 0.0 | 3.0 | 0.00 | 0.01 | 0.01 | 85 | 1016.2 |
| 20260901142704 | 84 | 280 | 1.0 | 3.0 | 0.00 | 0.01 | 0.01 | 87 | 1016.3 |
| 20260901142204 | 83 | 293 | 0.0 | 0.0 | 0.00 | 0.01 | 0.01 | 88 | 1016.3 |
| 20260901141705 | 81 | 293 | 0.0 | 0.0 | 0.00 | 0.01 | 0.01 | 92 | 1016.4 |
| 20260901141204 | 79 | 293 | 0.0 | 0.0 | 0.00 | 0.01 | 0.01 | 94 | 1016.2 |
| 20260901140705 | 79 | 293 | 0.0 | 0.0 | 0.00 | 0.01 | 0.01 | 94 | 1016.2 |
| 20260901135705 | 78 | 293 | 0.0 | 1.0 | 0.00 | 0.01 | 0.01 | 94 | 1016.3 |
| 20260901135205 | 78 | 293 | 0.0 | 1.0 | 0.00 | 0.01 | 0.01 | 95 | 1016.3 |
| 20260901134704 | 77 | 300 | 0.0 | 0.0 | 0.00 | 0.01 | 0.01 | 97 | 1016.6 |
| 20260901134204 | 76 | 296 | 0.0 | 1.0 | 0.00 | 0.01 | 0.01 | 99 | 1016.6 |
| 20260901133704 | 76 | 329 | 0.0 | 1.0 | 0.00 | 0.01 | 0.01 | 99 | 1016.3 |
| 20260901132704 | 75 | 329 | 0.0 | 0.0 | 0.00 | 0.01 | 0.01 | 99 | 1016.3 |
| 20260901132204 | 75 | 329 | 0.0 | 0.0 | 0.00 | 0.01 | 0.01 | 99 | 1016.5 |
| 20260901131705 | 74 | 329 | 0.0 | 0.0 | 0.00 | 0.01 | 0.01 | 99 | 1016.5 |
| 20260901131204 | 74 | 329 | 0.0 | 0.0 | 0.00 | 0.01 | 0.01 | 99 | 1016.7 |
| 20260901130704 | 74 | 329 | 0.0 | 0.0 | 0.00 | 0.01 | 0.01 | 99 | 1016.6 |
| 20260901130205 | 74 | 329 | 0.0 | 0.0 | 0.00 | 0.01 | 0.01 | 99 | 1016.6 |
| 20260901125704 | 74 | 329 | 0.0 | 0.0 | 0.00 | 0.01 | 0.01 | 99 | 1016.6 |
| 20260901125205 | 74 | 329 | 0.0 | 0.0 | 0.00 | 0.01 | 0.01 | 99 | 1016.5 |
| 20260901124704 | 74 | 329 | 0.0 | 0.0 | 0.00 | 0.01 | 0.01 | 99 | 1016.7 |
| 20260901124204 | 74 | 329 | 0.0 | 0.0 | 0.00 | 0.01 | 0.01 | 99 | 1016.6 |
| 20260901123704 | 74 | 329 | 0.0 | 0.0 | 0.00 | 0.01 | 0.01 | 99 | 1016.7 |
| 20260901123205 | 74 | 329 | 0.0 | 0.0 | 0.00 | 0.01 | 0.01 | 99 | 1016.7 |
| 20260901122705 | 74 | 329 | 0.0 | 0.0 | 0.00 | 0.01 | 0.01 | 99 | 1016.5 |
| 20260901122204 | 74 | 329 | 0.0 | 0.0 | 0.00 | 0.01 | 0.01 | 99 | 1016.5 |
| 20260901121704 | 74 | 329 | 0.0 | 0.0 | 0.00 | 0.01 | 0.01 | 99 | 1016.7 |
| 20260901121204 | 74 | 330 | 0.0 | 0.0 | 0.00 | 0.01 | 0.01 | 99 | 1016.6 |
| 20260901120206 | 73 | 330 | 0.0 | 0.0 | 0.00 | 0.01 | 0.01 | 99 | 1016.5 |
| 20260901115704 | 73 | 329 | 0.0 | 0.0 | 0.00 | 0.01 | 0.01 | 99 | 1016.6 |
| 20260901115204 | 73 | 330 | 0.0 | 0.0 | 0.00 | 0.01 | 0.01 | 99 | 1016.5 |
| 20260901114704 | 72 | 330 | 0.0 | 0.0 | 0.00 | 0.01 | 0.01 | 99 | 1016.5 |
| 20260901114205 | 71 | 330 | 0.0 | 0.0 | 0.00 | 0.01 | 0.01 | 99 | 1016.6 |
| 20260901113704 | 71 | 330 | 0.0 | 0.0 | 0.00 | 0.01 | 0.01 | 99 | 1016.6 |
| 20260901113204 | 71 | 330 | 0.0 | 0.0 | 0.00 | 0.01 | 0.01 | 99 | 1016.7 |
| 20260901112704 | 70 | 330 | 0.0 | 0.0 | 0.00 | 0.01 | 0.01 | 99 | 1016.8 |
| 20260901112204 | 70 | 329 | 0.0 | 0.0 | 0.00 | 0.01 | 0.01 | 99 | 1016.7 |
| 20260901111205 | 70 | 329 | 0.0 | 0.0 | 0.00 | 0.01 | 0.01 | 99 | 1016.6 |
| 20260901110204 | 69 | 330 | 0.0 | 0.0 | 0.00 | 0.01 | 0.01 | 99 | 1016.6 |
| 20260901105204 | 69 | 331 | 0.0 | 0.0 | 0.00 | 0.01 | 0.01 | 99 | 1016.7 |
| 20260901104705 | 69 | 331 | 0.0 | 0.0 | 0.00 | 0.01 | 0.01 | 99 | 1016.4 |
| 20260901104207 | 69 | 331 | 0.0 | 0.0 | 0.00 | 0.01 | 0.01 | 99 | 1016.5 |
| 20260901103704 | 69 | 331 | 0.0 | 0.0 | 0.00 | 0.01 | 0.01 | 99 | 1016.4 |
| 20260901102704 | 69 | 331 | 0.0 | 0.0 | 0.00 | 0.01 | 0.01 | 99 | 1016.7 |
| 20260901101705 | 69 | 331 | 0.0 | 0.0 | 0.00 | 0.01 | 0.01 | 99 | 1016.7 |
| 20260901101205 | 69 | 331 | 0.0 | 0.0 | 0.00 | 0.01 | 0.01 | 99 | 1016.6 |
| 20260901100704 | 69 | 331 | 0.0 | 0.0 | 0.00 | 0.01 | 0.01 | 99 | 1016.6 |
| 20260901100205 | 69 | 331 | 0.0 | 0.0 | 0.00 | 0.01 | 0.01 | 99 | 1016.5 |
| 20260901095704 | 69 | 331 | 0.0 | 0.0 | 0.00 | 0.01 | 0.01 | 99 | 1016.7 |
| 20260901095204 | 69 | 331 | 0.0 | 0.0 | 0.00 | 0.01 | 0.01 | 99 | 1016.6 |
| 20260901094204 | 69 | 331 | 0.0 | 0.0 | 0.00 | 0.01 | 0.01 | 99 | 1016.8 |
| 20260901093705 | 69 | 331 | 0.0 | 0.0 | 0.00 | 0.01 | 0.01 | 99 | 1016.8 |
| 20260901093204 | 69 | 331 | 0.0 | 0.0 | 0.00 | 0.01 | 0.01 | 99 | 1016.5 |
| 20260901092705 | 69 | 331 | 0.0 | 0.0 | 0.00 | 0.01 | 0.01 | 99 | 1016.8 |
| 20260901091704 | 69 | 331 | 0.0 | 0.0 | 0.00 | 0.01 | 0.01 | 99 | 1016.5 |
| 20260901091205 | 69 | 331 | 0.0 | 0.0 | 0.00 | 0.01 | 0.01 | 99 | 1016.6 |
| 20260901090704 | 69 | 331 | 0.0 | 0.0 | 0.00 | 0.01 | 0.01 | 99 | 1016.5 |
| 20260901090204 | 69 | 331 | 0.0 | 0.0 | 0.00 | 0.01 | 0.01 | 99 | 1016.7 |
| 20260901085705 | 69 | 331 | 0.0 | 0.0 | 0.00 | 0.01 | 0.01 | 99 | 1017.1 |
| 20260901085204 | 69 | 331 | 0.0 | 0.0 | 0.00 | 0.01 | 0.01 | 99 | 1017.0 |
| 20260901084205 | 69 | 331 | 0.0 | 0.0 | 0.00 | 0.01 | 0.01 | 99 | 1016.8 |
| 20260901083704 | 69 | 331 | 0.0 | 0.0 | 0.00 | 0.01 | 0.01 | 99 | 1016.9 |
| 20260901083205 | 69 | 331 | 0.0 | 0.0 | 0.00 | 0.01 | 0.01 | 99 | 1016.9 |
| 20260901082704 | 69 | 331 | 0.0 | 0.0 | 0.00 | 0.01 | 0.01 | 99 | 1016.9 |
| 20260901082205 | 69 | 331 | 0.0 | 0.0 | 0.00 | 0.01 | 0.01 | 99 | 1017.0 |
| 20260901081704 | 69 | 331 | 0.0 | 0.0 | 0.00 | 0.01 | 0.01 | 99 | 1017.1 |
| 20260901081205 | 69 | 331 | 0.0 | 0.0 | 0.00 | 0.01 | 0.01 | 99 | 1016.9 |
| 20260901080204 | 69 | 331 | 0.0 | 0.0 | 0.00 | 0.01 | 0.01 | 99 | 1017.0 |
| 20260901075704 | 69 | 331 | 0.0 | 0.0 | 0.00 | 0.01 | 0.01 | 99 | 1016.9 |
| 20260901074204 | 69 | 331 | 0.0 | 0.0 | 0.00 | 0.01 | 0.01 | 99 | 1016.7 |
| 20260901073704 | 69 | 331 | 0.0 | 0.0 | 0.00 | 0.01 | 0.01 | 99 | 1016.8 |
| 20260901073205 | 69 | 331 | 0.0 | 0.0 | 0.00 | 0.01 | 0.01 | 99 | 1016.7 |
| 20260901072204 | 69 | 331 | 0.0 | 0.0 | 0.00 | 0.01 | 0.01 | 99 | 1016.9 |
| 20260901071703 | 69 | 331 | 0.0 | 0.0 | 0.00 | 0.01 | 0.01 | 99 | 1017.0 |
| 20260901071204 | 69 | 331 | 0.0 | 0.0 | 0.00 | 0.01 | 0.01 | 99 | 1017.0 |
| 20260901070704 | 69 | 331 | 0.0 | 0.0 | 0.00 | 0.01 | 0.01 | 99 | 1017.2 |
| 20260901070204 | 69 | 331 | 0.0 | 0.0 | 0.00 | 0.01 | 0.01 | 99 | 1016.9 |
| 20260901065705 | 69 | 331 | 0.0 | 0.0 | 0.00 | 0.01 | 0.01 | 99 | 1016.8 |
| 20260901064704 | 69 | 331 | 0.0 | 0.0 | 0.00 | 0.01 | 0.01 | 99 | 1017.1 |
| 20260901064204 | 69 | 331 | 0.0 | 0.0 | 0.00 | 0.01 | 0.01 | 99 | 1017.4 |
| 20260901063705 | 69 | 331 | 0.0 | 0.0 | 0.00 | 0.01 | 0.01 | 99 | 1017.3 |
| 20260901063205 | 69 | 331 | 0.0 | 0.0 | 0.00 | 0.01 | 0.01 | 99 | 1017.3 |
| 20260901062704 | 69 | 331 | 0.0 | 0.0 | 0.00 | 0.01 | 0.01 | 99 | 1017.3 |
| 20260901062204 | 69 | 331 | 0.0 | 0.0 | 0.00 | 0.01 | 0.01 | 99 | 1017.4 |
| 20260901061704 | 69 | 331 | 0.0 | 0.0 | 0.00 | 0.01 | 0.01 | 99 | 1017.4 |
| 20260901061204 | 69 | 331 | 0.0 | 0.0 | 0.00 | 0.01 | 0.01 | 99 | 1017.5 |
| 20260901060704 | 69 | 331 | 0.0 | 0.0 | 0.00 | 0.01 | 0.01 | 99 | 1017.6 |
| 20260901060204 | 69 | 331 | 0.0 | 0.0 | 0.00 | 0.01 | 0.01 | 99 | 1017.7 |
| 20260901054704 | 69 | 331 | 0.0 | 0.0 | 0.00 | 0.01 | 0.01 | 99 | 1017.6 |
| 20260901052205 | 69 | 330 | 0.0 | 0.0 | 0.01 | 0.01 | 0.01 | 99 | 1017.9 |
| 20260901051704 | 69 | 330 | 0.0 | 0.0 | 0.01 | 0.01 | 0.01 | 99 | 1017.9 |
| 20260901051204 | 69 | 330 | 0.0 | 0.0 | 0.01 | 0.01 | 0.01 | 99 | 1017.9 |
| 20260901050707 | 69 | 330 | 0.0 | 0.0 | 0.01 | 0.01 | 0.01 | 99 | 1017.9 |
| 20260901050204 | 69 | 330 | 0.0 | 0.0 | 0.01 | 0.01 | 0.01 | 99 | 1017.9 |
| 20260901045704 | 69 | 330 | 0.0 | 0.0 | 0.01 | 0.01 | 0.01 | 99 | 1017.8 |
| 20260901045204 | 69 | 330 | 0.0 | 0.0 | 0.01 | 0.01 | 0.01 | 99 | 1018.0 |
| 20260901044705 | 69 | 330 | 0.0 | 0.0 | 0.01 | 0.01 | 0.01 | 99 | 1018.1 |
| 20260901044205 | 69 | 330 | 0.0 | 0.0 | 0.01 | 0.01 | 0.01 | 99 | 1017.9 |
| 20260901043204 | 69 | 330 | 0.0 | 0.0 | 0.01 | 0.01 | 0.01 | 99 | 1018.2 |
| 20260901042705 | 69 | 330 | 0.0 | 0.0 | 0.01 | 0.01 | 0.01 | 99 | 1018.3 |
| 20260901042205 | 69 | 330 | 0.0 | 0.0 | 0.00 | 0.00 | 0.00 | 99 | 1018.3 |
| 20260901041705 | 69 | 330 | 0.0 | 0.0 | 0.00 | 0.00 | 0.00 | 99 | 1018.7 |
| 20260901041204 | 69 | 330 | 0.0 | 0.0 | 0.00 | 0.00 | 0.00 | 99 | 1018.4 |
| 20260901040706 | 69 | 330 | 0.0 | 0.0 | 0.00 | 0.00 | 0.00 | 99 | 1018.6 |
| 20260901040205 | 69 | 330 | 0.0 | 0.0 | 0.00 | 0.03 | 0.00 | 99 | 1018.6 |
| 20260901035704 | 69 | 330 | 0.0 | 0.0 | 0.00 | 0.03 | 0.00 | 99 | 1018.6 |
| 20260901035206 | 69 | 330 | 0.0 | 0.0 | 0.00 | 0.03 | 0.00 | 99 | 1018.5 |
| 20260901034704 | 68 | 330 | 0.0 | 0.0 | 0.00 | 0.03 | 0.00 | 99 | 1018.6 |
| 20260901034205 | 68 | 330 | 0.0 | 0.0 | 0.00 | 0.03 | 0.00 | 99 | 1018.6 |
| 20260901033704 | 69 | 330 | 0.0 | 0.0 | 0.00 | 0.03 | 0.00 | 99 | 1018.7 |
| 20260901032705 | 69 | 330 | 0.0 | 0.0 | 0.00 | 0.03 | 0.00 | 99 | 1018.7 |
| 20260901032204 | 69 | 330 | 0.0 | 0.0 | 0.00 | 0.03 | 0.00 | 99 | 1018.7 |
| 20260901031704 | 68 | 330 | 0.0 | 0.0 | 0.00 | 0.03 | 0.00 | 99 | 1018.5 |
| 20260901030204 | 68 | 330 | 0.0 | 0.0 | 0.00 | 0.03 | 0.00 | 99 | 1018.6 |
| 20260901025204 | 68 | 330 | 0.0 | 0.0 | 0.00 | 0.03 | 0.00 | 99 | 1018.6 |